Location: Hiekkapohja
(62.3333°N, 25.7833°E)
Time: 19:52:35
(UTC+00:00)

Cosmos 1634 Rocket - Pass Details

Date: 07 August 2020
Orbit: 960 x 992 km, 82.9° (Epoch: 28 September)

Event Time Altitude Azimuth Distance (km) Brightness Sun altitude
Exits shadow 00:05:34 - 185° (S) 2,843 5.8 -8.8°
Reaches altitude 10° 00:05:51 10° 185° (S) 2,732 5.8 -8.7°
Maximum altitude 00:12:07 78° 101° (E) 1,002 4.1 -8.4°
Drops below altitude 10° 00:18:21 10° 16° (NNE) 2,726 7.9 -8.1°
Sets 00:20:52 0° 15° (NNE) 3,673 8.9 -8.0°
